Zurück zum Katalog

CZ-6A DEB

AktivPO
NORAD 60673·DEBRIS·🇨🇳 China

Gestartet Aug 6, 2024 von Taiyuan Satellite Launch Center

Loading…

Nächste Überflüge (nächste 24 Stunden)

TLE

AktuellSource: Space-Track

Epoche: Sep 14, 2026, 12:29 UTC

1 60673U 24140CA  26257.52082376  .00005518  00000-0  53660-3 0  9990
2 60673  89.2702 284.2851 0204661 271.9866  85.7931 14.77964728112653

Verfolge CZ-6A DEB in Echtzeit mit AllMySat

Download on the App Store